Home > Weather > Peshawar > Past weeks

Flag for Pakistan Weather for the Past 2 Weeks in Peshawar, Pakistan

Now
93 °F

Sunny.


Feels Like: 94 °F
Forecast: 64 / 101 °F
Wind: 7 mph from East

Location: Peshawar Airport

Current Time: May 1, 2016 at 11:37:06 AM

Latest Report: May 1, 2016 at 11:00 AM


Visibility: 3 mi

Pressure: 29.71 "Hg

Humidity: 36%

Dew Point: 63 °F

Location of PeshawarLocation

Historic Weather in Peshawar — Graph

°F

Peshawar Temperature Yesterday

Maximum temperature yesterday: 100 °F (at 3:00 PM)
Minimum temperature yesterday: 70 °F (at 5:00 AM)
Average temperature yesterday: 86 °F

High & Low Weather Summary for the Past Weeks

 TemperatureHumidityPressure
High100 °F (Apr 30, 3:00 PM)88% (Apr 18, 3:00 AM)29.98 "Hg (Apr 18, 3:00 AM)
Low61 °F (Apr 22, 5:00 AM)24% (Apr 23, 3:30 PM)29.62 "Hg (Apr 21, 5:00 PM)
Average79 °F46%29.80 "Hg
* Reported Apr 16 9:00 AM — May 1 9:00 AM, Peshawar, Weather by CustomWeather, © 2016

Note: Actual official high and low records may vary slightly from our data, if they occured in-between our weather recording intervals... More about our weather records

Advertising

Peshawar Weather History for the Previous 24 Hours

Scroll right to see more
 ConditionsComfort  
Time TempWeatherWind HumidityBarometerVisibility
9:00 AM
Sun, May 1
88 °FSunny.7 mph46%29.74 "Hg2 mi
8:00 AM82 °FSunny.7 mph51%29.71 "Hg2 mi
7:00 AM77 °FSunny.5 mph54%29.71 "Hg2 mi
6:00 AM73 °FSunny.5 mph61%29.71 "Hg2 mi
4:59 AM75 °FClear.7 mph57%29.71 "Hg2 mi
4:00 AM77 °FClear.5 mph51%29.71 "Hg2 mi
3:00 AM79 °FClear.5 mph48%29.71 "Hg2 mi
2:30 AM79 °FClear.No wind48%29.71 "Hg2 mi
2:00 AM79 °FClear.No wind48%29.71 "Hg2 mi
1:30 AM81 °FClear.5 mph48%29.71 "Hg2 mi
1:00 AM81 °FClear.5 mph48%29.71 "Hg2 mi
12:00 AM82 °FClear.7 mph45%29.74 "Hg2 mi
11:30 PM
Sat, Apr 30
84 °FClear.5 mph43%29.74 "Hg2 mi
11:00 PM84 °FClear.5 mph43%29.74 "Hg2 mi
10:00 PM86 °FHaze.5 mph40%29.71 "Hg2 mi
9:30 PM88 °FHaze.No wind38%29.71 "Hg2 mi
9:00 PM88 °FHaze.No wind38%29.71 "Hg2 mi
8:30 PM90 °FHaze.7 mph36%29.71 "Hg2 mi
8:00 PM90 °FHaze.7 mph36%29.71 "Hg2 mi
7:00 PM91 °FHaze.7 mph30%29.68 "Hg3 mi
6:00 PM95 °FHaze.7 mph28%29.68 "Hg3 mi
5:00 PM99 °FHaze.9 mph25%29.68 "Hg3 mi
4:00 PM100 °FHaze.7 mph24%29.68 "Hg3 mi
3:00 PM100 °FHaze.7 mph24%29.71 "Hg3 mi
2:30 PM99 °FSunny.9 mph27%29.74 "Hg2 mi
2:00 PM99 °FSunny.9 mph27%29.74 "Hg2 mi
1:00 PM99 °FSunny.5 mph27%29.77 "Hg3 mi
12:30 PM97 °FSunny.No wind30%29.77 "Hg3 mi
12:00 PM97 °FSunny.No wind30%29.77 "Hg3 mi
11:30 AM93 °FSunny.5 mph32%29.80 "Hg3 mi
11:00 AM93 °FSunny.5 mph32%29.80 "Hg3 mi
Weather by CustomWeather, © 2016

See weather overviewHow to use our weather pages